Content
SEND FEEDBACK

Daily
Averages
Monthly
Summary
Greenland

IKERASAK, GREENLAND


Home > North America > Greenland
Elevation: 46 feet     Latitude: 65 01N     Longitude: 052 33W

WEATHER
 
SELECT A DAY
Number of Records: 111,936;   Date Range: 9/30/99 - 7/24/14
 
SHARE

PRINT THIS DATA

[ ← Previous Day ]
WEATHER ALMANAC - JANUARY 31, 2013
[ Next Day → ]
[ °C ]   °F
Weather ElementAverageHighLow
Temperature20.1 °F28.4 °F (10:50 pm)12.2 °F (12:50 am)
Dewpoint7.6 °F12.2 °F (11:50 pm)3.2 °F (12:50 am)
Humidity59.6 %73 % (1:50 am)43 % (11:20 pm)
Barometer29.41 in29.56 in (12:50 am)29.21 in (11:50 pm)
Wind Speed15.7 mph20.7 mph (3:50 am)
Wind Gust32.2 mph (11:20 pm)
Weather ElementAverage
Visibility6.2 mi
Wind DirectionENE (78.3 °)

Weather ElementTotal
Precipitation---
Heating Degree Days44.7 (Base 65)
Averaged from 40 records on January 31, 2013
WEATHER CONDITIONS BREAKOUT
WIND DIRECTION BREAKOUT
WEATHER BY HOUR - JANUARY 31, 2013
[ °C ]   °F
Local TimeTemperatureDewpointHumidityBarometerVisibilityWind DirectionWind SpeedGust SpeedPrecipitationEventsConditions
12:50 AM12.2 °F3.2 °F67 %29.56 in6.2 miEast (90°)15.0 mph
1:20 AM12.2 °F3.2 °F67 %29.56 in6.2 miEast (90°)16.1 mph
1:50 AM12.2 °F5.0 °F73 %29.53 in6.2 miEast (80°)19.6 mph
2:20 AM12.2 °F5.0 °F73 %29.53 in6.2 miEast (80°)17.3 mphPartly Cloudy
2:50 AM14.0 °F6.8 °F73 %29.53 in6.2 miEast (80°)15.0 mphMostly Cloudy
3:20 AM14.0 °F6.8 °F73 %29.53 in6.2 miEast (80°)17.3 mphMostly Cloudy
3:50 AM12.2 °F5.0 °F73 %29.53 in6.2 miEast (80°)20.7 mphPartly Cloudy
4:20 AM12.2 °F5.0 °F73 %29.53 in6.2 miEast (80°)17.3 mphPartly Cloudy
4:50 AM14.0 °F6.8 °F73 %29.50 in6.2 miEast (90°)15.0 mphSnowLight Snow
5:20 AM14.0 °F6.8 °F73 %29.50 in6.2 miEast (90°)15.0 mphSnowLight Snow Grains
5:50 AM14.0 °F6.8 °F73 %29.50 in6.2 miEast (80°)15.0 mphSnowLight Snow
6:20 AM14.0 °F6.8 °F73 %29.50 in6.2 miEast (80°)16.1 mphLight Ice Crystals
6:50 AM15.8 °F6.8 °F68 %29.50 in6.2 miEast (80°)17.3 mphSnowLight Snow Grains
7:20 AM15.8 °F8.6 °F73 %29.50 in6.2 miEast (80°)12.7 mphLight Ice Crystals
7:50 AM15.8 °F8.6 °F73 %29.50 in6.2 miEast (80°)10.4 mphMostly Cloudy
8:50 AM17.6 °F8.6 °F68 %29.47 in6.2 miEast (80°)12.7 mphMostly Cloudy
9:50 AM17.6 °F8.6 °F68 %29.47 in6.2 miEast (90°)10.4 mphMostly Cloudy
10:50 AM19.4 °F10.4 °F68 %29.44 in6.2 miENE (70°)10.4 mphMostly Cloudy
11:50 AM21.2 °F10.4 °F63 %29.44 in6.2 miENE (70°)10.4 mphMostly Cloudy
12:50 PM21.2 °F10.4 °F63 %29.42 in6.2 miEast (80°)16.1 mphMostly Cloudy
1:50 PM23.0 °F8.6 °F54 %29.39 in6.2 miEast (80°)16.1 mphMostly Cloudy
2:50 PM23.0 °F6.8 °F50 %29.39 in6.2 miEast (80°)17.3 mphMostly Cloudy
3:20 PM23.0 °F8.6 °F54 %29.36 in6.2 miENE (70°)15.0 mphMostly Cloudy
3:50 PM23.0 °F6.8 °F50 %29.36 in6.2 miEast (80°)15.0 mphPartly Cloudy
4:20 PM23.0 °F6.8 °F50 %29.36 in6.2 miEast (80°)17.3 mph
4:50 PM23.0 °F6.8 °F50 %29.36 in6.2 miEast (80°)17.3 mphPartly Cloudy
5:20 PM23.0 °F6.8 °F50 %29.36 in6.2 miEast (80°)16.1 mphMostly Cloudy
5:50 PM23.0 °F8.6 °F54 %29.36 in6.2 miEast (80°)13.8 mph
6:20 PM24.8 °F6.8 °F46 %29.33 in6.2 miEast (80°)15.0 mphPartly Cloudy
6:50 PM24.8 °F6.8 °F46 %29.33 in6.2 miEast (80°)15.0 mphPartly Cloudy
7:20 PM24.8 °F8.6 °F50 %29.33 in6.2 miEast (80°)12.7 mphScattered Clouds
7:50 PM24.8 °F6.8 °F46 %29.30 in6.2 miENE (70°)16.1 mph
8:20 PM26.6 °F8.6 °F47 %29.30 in6.2 miENE (70°)18.4 mphPartly Cloudy
8:50 PM26.6 °F8.6 °F47 %29.30 in6.2 miENE (60°)19.6 mph
9:20 PM26.6 °F8.6 °F47 %29.30 in6.2 miEast (80°)15.0 mphMostly Cloudy
9:50 PM26.6 °F8.6 °F47 %29.27 in6.2 miENE (70°)13.8 mphMostly Cloudy
10:20 PM26.6 °F8.6 °F47 %29.27 in6.2 miENE (70°)17.3 mphMostly Cloudy
10:50 PM28.4 °F10.4 °F47 %29.24 in6.2 miENE (70°)17.3 mphMostly Cloudy
11:20 PM28.4 °F8.6 °F43 %29.24 in6.2 miENE (70°)20.7 mph32.2 mphMostly Cloudy
11:50 PM28.4 °F12.2 °F51 %29.21 in6.2 miENE (70°)20.7 mphMostly Cloudy
Hourly data recorded from BGMQ, located miles away from Ikerasak, Greenland







STORIES FROM OUR PARTNERS